Weather History for Omak, WA

Change the Weather History Date:

Friday, May 13, 2011

  Actual Average Record
Temperature  
Mean Temperature 54 °F 57 °F  
Max Temperature 72 °F 71 °F 95 °F (1993)
Min Temperature 36 °F 43 °F 28 °F (2009)
Degree Days  
Heating Degree Days 11 8  
Month to date heating degree days 159 129  
Since 1 July heating degree days 6454 6168  
Cooling Degree Days 0 1  
Month to date cooling degree days 0 3  
Year to date cooling degree days 0 4  
Growing Degree Days 4 (Base 50)    
Moisture  
Dew Point 32 °F    
Average Humidity 50    
Maximum Humidity 75    
Minimum Humidity 24    
Precipitation  
Precipitation 0.00 in 0.04 in 0.44 in (1945)
Month to date precipitation 0.21 0.51  
Year to date precipitation 4.13 5.72  
Sea Level Pressure  
Sea Level Pressure 30.13 in    
Wind  
Wind Speed 11 mph (NNW)    
Max Wind Speed 20 mph    
Max Gust Speed 24 mph    
Visibility 10 miles    
Events      
T = Trace of Precipitation, MM = Missing Value Source: NWS Daily Summary

Daily Weather History Graph

Daily Weather History Graph

Search for Another Location

Airport:

Trip Planner

Search our weather history database for the weather conditions in past years. The results will help you decide how hot, cold, wet, or windy it might be!

Date:

Astronomy

May. 13, 2011 Rise Set
Actual Time 5:20 AM PDT 8:29 PM PDT
Civil Twilight 4:43 AM PDT 9:06 PM PDT
Nautical Twilight 3:55 AM PDT 9:55 PM PDT
Astronomical Twilight 2:54 AM PDT 10:56 PM PDT
Moon 4:11 PM PDT (5/13) 2:56 AM PDT (5/13)
Length of Visible Light 16h 22m
Length of Day
15h 08m
Waxing Gibbous, 82% of the Moon is Illuminated
May 13
Waxing Gibbous
May 17
Full
May 24
Last Quarter
Jun 1
New
Jun 8
First Quarter

Hourly Weather History & Observations

Time (PDT) Temp. Windchill Dew Point Humidity Pressure Visibility Wind Dir Wind Speed Gust Speed Precip Events Conditions
12:53 AM 39.9 °F 34.5 °F 28.0 °F 63% 30.29 in 10.0 mi WNW 8.1 mph - N/A   Clear
1:53 AM 39.9 °F 35.8 °F 28.0 °F 63% 30.30 in 10.0 mi West 5.8 mph - N/A   Clear
3:53 AM 36.0 °F 30.3 °F 28.9 °F 76% 30.32 in 10.0 mi WNW 6.9 mph - N/A   Clear
4:53 AM 39.0 °F - 28.9 °F 67% 30.32 in 10.0 mi Calm Calm - N/A   Clear
5:53 AM 41.0 °F 36.4 °F 30.0 °F 65% 30.32 in 10.0 mi NNW 6.9 mph - N/A   Clear
6:53 AM 44.1 °F 38.6 °F 30.9 °F 60% 30.32 in 10.0 mi NNW 10.4 mph - N/A   Clear
8:53 AM 53.1 °F - 34.0 °F 48% 30.30 in 10.0 mi North 12.7 mph - N/A   Clear
9:53 AM 57.0 °F - 34.0 °F 42% 30.26 in 10.0 mi North 17.3 mph 24.2 mph N/A   Clear
10:53 AM 61.0 °F - 35.1 °F 38% 30.22 in 10.0 mi North 17.3 mph 23.0 mph N/A   Clear
11:53 AM 64.9 °F - 33.1 °F 31% 30.18 in 10.0 mi North 15.0 mph - N/A   Clear
12:53 PM 66.9 °F - 32.0 °F 27% 30.13 in 10.0 mi North 10.4 mph 18.4 mph N/A   Clear
1:53 PM 66.0 °F - 30.9 °F 27% 30.09 in 10.0 mi NNE 11.5 mph - N/A   Clear
2:53 PM 70.0 °F - 32.0 °F 25% 30.06 in 10.0 mi North 11.5 mph - N/A   Partly Cloudy
3:53 PM 71.1 °F - 32.0 °F 24% 30.03 in 10.0 mi North 10.4 mph - N/A   Scattered Clouds
4:53 PM 70.0 °F - 32.0 °F 25% 30.00 in 10.0 mi North 9.2 mph - N/A   Partly Cloudy
5:53 PM 69.1 °F - 32.0 °F 25% 29.98 in 10.0 mi North 10.4 mph - N/A   Partly Cloudy
6:53 PM 64.9 °F - 34.0 °F 32% 29.98 in 10.0 mi NW 10.4 mph - N/A   Clear
7:53 PM 57.9 °F - 35.1 °F 42% 29.96 in 10.0 mi North 8.1 mph - N/A   Clear
8:53 PM 61.0 °F - 32.0 °F 34% 29.95 in 10.0 mi North 12.7 mph - N/A   Clear
9:53 PM 57.9 °F - 33.1 °F 39% 29.95 in 10.0 mi NW 11.5 mph - N/A   Clear
10:53 PM 57.9 °F - 33.1 °F 39% 29.93 in 10.0 mi NW 12.7 mph - N/A   Clear
11:53 PM 59.0 °F - 33.1 °F 38% 29.90 in 10.0 mi North 15.0 mph - N/A   Mostly Cloudy